Location: Chatou
(48.8898°N, 2.1586°E)
Time: 07:41:20
(UTC+00:00)

Cosmos 2278 Rocket - Visible Passes

Search period start: 24 September 2023 00:00
Search period end: 04 October 2023 00:00
Orbit: 839 x 847 km, 71.0° (Epoch: 23 September)

Date Brightness Start Highest point End Pass type
(mag) Time Alt. Az. Time Alt. Az. Time Alt. Az.
24 Sep 2.9 19:14:08 10° NNW 19:19:24 36° NE 19:21:50 25° E visible
24 Sep 2.9 20:58:13 10° NW 21:03:35 45° WSW 21:03:41 45° WSW visible
25 Sep 3.0 18:59:28 10° NNW 19:04:41 35° NE 19:07:41 21° E visible
25 Sep 2.8 20:43:30 10° NW 20:48:56 47° WSW 20:49:33 45° SW visible
26 Sep 3.0 18:44:49 10° NNW 18:49:59 34° NE 18:53:36 17° ESE visible
26 Sep 2.8 20:28:48 10° NW 20:34:16 49° WSW 20:35:28 42° SSW visible
27 Sep 3.0 18:30:09 10° NNW 18:35:16 33° NE 18:39:35 14° ESE visible
27 Sep 2.8 20:14:06 10° NW 20:19:36 51° WSW 20:21:26 37° SSW visible
28 Sep 3.1 18:15:29 10° NNW 18:20:34 32° NE 18:25:36 10° ESE visible
28 Sep 2.8 19:59:24 10° NW 20:04:55 54° WSW 20:07:31 30° S visible
29 Sep 3.1 18:00:49 10° NNW 18:05:51 31° NE 18:10:51 10° ESE visible
29 Sep 2.7 19:44:42 10° NW 19:50:15 56° WSW 19:53:41 23° S visible
30 Sep 2.7 19:30:01 10° NW 19:35:35 58° WSW 19:39:57 16° S visible
01 Oct 2.7 19:15:19 10° NW 19:20:54 61° WSW 19:26:23 10° S visible
02 Oct 2.6 19:00:37 10° NNW 19:06:14 63° WSW 19:11:48 10° SSE visible
03 Oct 2.6 18:45:55 10° NNW 18:51:33 66° WSW 18:57:08 10° SSE visible
03 Oct 5.1 20:33:28 10° W 20:34:29 10° W 20:35:31 10° WSW visible
